Location: Glendo
(42.5037°N, 105.0248°W)
Time: 08:18:04
(UTC+00:00)

Envisat - Pass Details

Date: 29 January 2022
Orbit: 764 x 765 km, 98.2° (Epoch: 22 May)

Event Time Altitude Azimuth Distance (km) Brightness Sun altitude
Rises 10:48:08 0° 28° (NNE) 3,239 6.7 -38.5°
Reaches altitude 10° 10:51:01 10° 44° (NE) 2,308 6.0 -38.0°
Maximum altitude 10:54:47 21° 92° (E) 1,684 5.3 -37.3°
Drops below altitude 10° 10:58:32 10° 140° (SE) 2,296 5.7 -36.6°
Sets 11:01:23 0° 157° (SSE) 3,217 6.4 -36.1°
